N0DP Weather Reports


time (UTC)temp
C
wind
direction
speed
KPH
gust
KPH
rain 1hr
cm
rain 24hr
cm
rain mn
cm
humidity
%
barometer
mb
20260906173537 23 0.0 9.7 0.00 0.00 0.00 90 1016.3
20260906172536 23 0.0 1.6 0.00 0.00 0.00 90 1016.5
20260906171516 22 0.0 4.8 0.00 0.00 0.00 91 1016.5
20260906170516 22 0.0 0.0 0.00 0.00 0.00 91 1016.7
20260906165516 22 0.0 4.8 0.00 0.00 0.00 91 1016.7
20260906164516 22 0.0 8.0 0.00 0.00 0.00 91 1016.7
20260906163516 22 0.0 9.7 0.00 0.00 0.00 91 1016.8
20260906162516 22 0.0 3.2 0.00 0.00 0.00 92 1016.9
20260906161516 22 0.0 3.2 0.00 0.00 0.00 91 1016.9
20260906160516 22 0.0 0.0 0.00 0.00 0.00 92 1017.0
20260906155517 23 0.0 0.0 0.00 0.00 0.00 91 1016.8
20260906154516 23 0.0 3.2 0.00 0.00 0.00 91 1016.9
20260906153516 23 0.0 0.0 0.00 0.00 0.00 91 1016.9
20260906152516 23 0.0 4.8 0.00 0.00 0.00 92 1016.9
20260906151516 23 0.0 4.8 0.00 0.00 0.00 90 1016.9
20260906150516 23 0 1.6 8.0 0.00 0.00 0.00 90 1016.9
20260906145516 23 0.0 1.6 0.00 0.00 0.00 91 1016.7
20260906144516 23 0.0 3.2 0.00 0.00 0.00 93 1016.7
20260906143516 23 0.0 3.2 0.00 0.00 0.00 93 1016.7
20260906142516 23 0.0 9.7 0.00 0.00 0.00 93 1016.6
20260906141516 23 0.0 0.0 0.00 0.00 0.00 93 1016.6
20260906140617 22 0.0 0.0 0.00 0.00 0.00 94 1016.8
20260906135516 22 0.0 0.0 0.00 0.00 0.00 94 1016.6
20260906134516 22 0.0 8.0 0.00 0.00 0.00 95 1016.6
20260906133516 22 0.0 0.0 0.00 0.00 0.00 96 1016.5
20260906132516 22 0.0 0.0 0.00 0.00 0.00 96 1016.5
20260906131516 21 0.0 4.8 0.00 0.00 0.00 97 1016.4
20260906130515 21 0.0 1.6 0.00 0.00 0.00 100 1016.3
20260906125516 21 0.0 0.0 0.00 0.00 0.00 100 1016.3
20260906124516 20 0.0 0.0 0.00 0.00 0.00 100 1016.3
20260906123536 20 0.0 0.0 0.00 0.00 0.00 100 1016.2
20260906122516 20 0.0 0.0 0.00 0.00 0.00 100 1016.3
20260906121516 19 0.0 0.0 0.00 0.00 0.00 100 1016.2
20260906120536 19 0.0 0.0 0.00 0.00 0.00 100 1016.1
20260906115516 19 0.0 0.0 0.00 0.00 0.00 100 1015.9
20260906114516 19 0.0 0.0 0.00 0.00 0.00 100 1015.9
20260906113516 19 0.0 0.0 0.00 0.00 0.00 100 1016.0
20260906112515 19 0.0 0.0 0.00 0.00 0.00 100 1015.7
20260906111515 19 0.0 0.0 0.00 0.00 0.00 100 1015.7
20260906110516 19 0.0 0.0 0.00 0.00 0.00 100 1015.6
20260906105515 19 0.0 0.0 0.00 0.00 0.00 100 1015.6
20260906104516 19 0.0 0.0 0.00 0.00 0.00 100 1015.6
20260906103516 19 0.0 0.0 0.00 0.00 0.00 100 1015.6
20260906102515 19 0.0 0.0 0.00 0.00 0.00 100 1015.6
20260906101516 19 0.0 0.0 0.00 0.00 0.00 100 1015.6
20260906100536 20 0.0 0.0 0.00 0.00 0.00 100 1015.5
20260906095516 20 0.0 0.0 0.00 0.00 0.00 100 1015.3
20260906094536 20 0.0 0.0 0.00 0.00 0.00 100 1015.3
20260906093516 20 0.0 0.0 0.00 0.00 0.00 100 1015.0
20260906092518 20 0.0 0.0 0.00 0.00 0.00 100 1014.8
20260906091518 20 0.0 0.0 0.00 0.00 0.00 100 1014.8
20260906090518 20 0.0 0.0 0.00 0.00 0.00 100 1014.8
20260906085518 20 0.0 0.0 0.00 0.00 0.00 100 1015.0
20260906084558 20 0.0 0.0 0.00 0.00 0.00 100 1015.0
20260906083517 21 0.0 0.0 0.00 0.00 0.00 100 1014.8
20260906082527 21 0.0 0.0 0.00 0.00 0.00 100 1014.6
20260906081528 21 0.0 0.0 0.00 0.00 0.00 100 1014.6
20260906080518 21 0.0 0.0 0.00 0.00 0.00 100 1014.5
20260906075517 21 0.0 0.0 0.00 0.00 0.00 100 1014.5
20260906074517 21 0.0 0.0 0.00 0.00 0.00 100 1014.5
20260906073517 21 0.0 0.0 0.00 0.00 0.00 100 1014.6
20260906072518 21 0.0 0.0 0.00 0.00 0.00 100 1014.9
20260906071538 21 0.0 0.0 0.00 0.00 0.00 100 1014.9
20260906070517 21 0.0 3.2 0.00 0.00 0.00 100 1015.1
20260906065517 21 0.0 0.0 0.00 0.00 0.00 100 1015.1
20260906064517 21 0.0 0.0 0.00 0.00 0.00 100 1015.1
20260906063517 21 0.0 0.0 0.00 0.00 0.00 100 1015.1
20260906062517 21 0.0 0.0 0.00 0.00 0.00 100 1015.0
20260906061518 21 0.0 0.0 0.00 0.00 0.00 100 1015.0
20260906060517 21 0.0 0.0 0.00 0.00 0.00 100 1015.0
20260906055537 21 0.0 0.0 0.00 0.00 0.00 100 1015.0
20260906054517 21 0.0 0.0 0.00 0.00 0.00 100 1015.0
20260906053517 21 0.0 0.0 0.00 0.00 0.00 100 1015.0
20260906052518 21 0.0 0.0 0.00 0.00 0.00 100 1015.0
20260906051517 21 0.0 0.0 0.00 0.00 0.00 100 1015.0
20260906050517 21 0.0 0.0 0.00 0.00 0.00 100 1015.2
20260906045517 21 0.0 0.0 0.00 0.00 0.00 100 1015.5
20260906044516 21 0.0 0.0 0.00 0.00 0.00 99 1015.5
20260906043516 21 0.0 0.0 0.00 0.00 0.00 99 1015.3
20260906042516 21 0.0 0.0 0.00 0.00 0.00 99 1015.4
20260906041516 21 0.0 0.0 0.00 0.00 0.00 98 1015.4
20260906040516 22 0.0 0.0 0.00 0.00 0.00 97 1015.5
20260906035516 22 0.0 0.0 0.00 0.00 0.00 96 1015.6
20260906034516 22 0.0 0.0 0.00 0.00 0.00 96 1015.6
20260906033516 22 0.0 0.0 0.00 0.00 0.00 95 1015.5
20260906032516 22 0.0 0.0 0.00 0.00 0.00 95 1015.4
20260906031516 22 0.0 0.0 0.00 0.00 0.00 94 1015.4
20260906030516 23 0.0 0.0 0.00 0.00 0.00 93 1015.4
20260906025516 23 0.0 0.0 0.00 0.00 0.00 93 1015.6
20260906024516 23 0.0 0.0 0.00 0.00 0.00 92 1015.6
20260906023516 23 0.0 0.0 0.00 0.00 0.00 91 1015.6
20260906022516 23 0.0 0.0 0.00 0.00 0.00 90 1015.3
20260906021537 23 0.0 0.0 0.00 0.00 0.00 89 1015.3
20260906020516 24 0.0 0.0 0.00 0.00 0.00 88 1014.7
20260906015516 24 0.0 0.0 0.00 0.00 0.00 87 1014.4
20260906014517 24 0.0 0.0 0.00 0.00 0.00 87 1014.4
20260906013536 25 0.0 0.0 0.00 0.00 0.00 86 1013.8
20260906012516 25 0.0 0.0 0.00 0.00 0.00 85 1013.4
20260906011516 25 0.0 0.0 0.00 0.00 0.00 84 1013.4
20260906010516 25 0.0 4.8 0.00 0.00 0.00 83 1013.2
20260906005516 26 0.0 0.0 0.00 0.00 0.00 82 1012.9
20260906004516 26 0.0 8.0 0.00 0.00 0.00 81 1013.0
20260906003516 26 0.0 0.0 0.00 0.00 0.00 80 1012.9
20260906002516 26 0.0 0.0 0.00 0.00 0.00 78 1012.5
20260906001518 26 0.0 1.6 0.00 0.00 0.00 78 1012.5
20260906000516 27 0.0 0.0 0.00 0.00 0.00 76 1012.6
20260905235516 27 0.0 0.0 0.00 0.00 0.00 74 1012.7
20260905234516 27 0.0 0.0 0.00 0.00 0.00 71 1012.7
20260905233516 27 113 1.6 11.3 0.00 0.00 0.00 70 1012.5
20260905232516 28 0.0 0.0 0.00 0.00 0.00 69 1012.5
20260905231515 28 0.0 0.0 0.00 0.00 0.00 69 1012.5
20260905230516 28 113 1.6 12.9 0.00 0.00 0.00 68 1012.3
20260905225516 28 0.0 3.2 0.00 0.00 0.00 69 1012.0
20260905224516 28 113 1.6 11.3 0.00 0.00 0.00 68 1012.0
20260905223515 28 0.0 9.7 0.00 0.00 0.00 69 1011.9
20260905222516 28 0.0 1.6 0.00 0.00 0.00 73 1012.2
20260905221516 28 113 1.6 9.7 0.00 0.00 0.00 70 1012.1
20260905220517 28 0.0 3.2 0.00 0.00 0.00 70 1012.3
20260905215517 28 113 1.6 8.0 0.00 0.00 0.00 70 1012.4
20260905214517 28 0.0 3.2 0.00 0.00 0.00 73 1012.4
20260905213518 27 0.0 6.4 0.00 0.00 0.00 72 1012.6
20260905212537 27 338 1.6 12.9 0.00 0.00 0.00 74 1012.7
20260905211517 27 0.0 0.0 0.00 0.00 0.00 73 1012.7
20260905210517 27 0.0 9.7 0.00 0.00 0.00 75 1012.8
20260905205517 27 0.0 6.4 0.00 0.00 0.00 75 1012.6
20260905204517 27 270 1.6 17.7 0.00 0.00 0.00 78 1012.6
20260905203517 27 158 1.6 19.3 0.00 0.00 0.00 79 1013.3
20260905202538 26 0.0 9.7 0.00 0.00 0.00 79 1013.5
20260905201517 26 338 1.6 11.3 0.00 0.00 0.00 80 1013.5
20260905200528 26 315 1.6 16.1 0.00 0.00 0.00 82 1014.0
20260905195528 26 315 1.6 9.7 0.00 0.00 0.00 83 1014.2
20260905194517 26 0.0 1.6 0.00 0.00 0.00 82 1014.2
20260905193518 26 0.0 0.0 0.00 0.00 0.00 82 1014.5
20260905192517 26 0.0 0.0 0.00 0.00 0.00 82 1014.5
20260905191517 26 0.0 0.0 0.00 0.00 0.00 83 1014.5
20260905190517 26 0.0 0.0 0.00 0.00 0.00 84 1014.6
20260905185517 25 0.0 8.0 0.00 0.00 0.00 85 1014.6
20260905184537 25 0.0 0.0 0.00 0.00 0.00 84 1014.6
20260905183518 25 0.0 0.0 0.00 0.00 0.00 86 1014.7
20260905182518 25 0.0 0.0 0.00 0.00 0.00 87 1014.9
20260905181517 25 0.0 0.0 0.00 0.00 0.00 86 1014.9
20260905180537 25 0.0 0.0 0.00 0.00 0.00 87 1015.0
20260905175517 24 0.0 0.0 0.00 0.00 0.00 89 1015.3
20260905174517 23 0.0 0.0 0.00 0.00 0.00 91 1015.3